(103) Hera
ephemeris date magn radius delta ra dec elong phase
Today26 Jul 202613.62.876 AU3.516 AU11h16m+08°07'44.2°14.2°
Opposition26 May 202711.22.650 AU1.644 AU16h21m-13°06'171.7°3.2°
(103) Hera - 2026-07-26
astro.vanbuitenen.nl


 
-1 year
-1 month
-1 day
Now
+1 day
+1 month
+1 year

The interactive orbit chart above shows the body's path through the solar system and its position at the given date. Green and blue lines are shown perpendicular to the ecliptic plane: Green if the path is above the ecliptic plane, blue if it is below. (Left-click and drag to rotate the view; Right-click and drag to move the view; Use scroll wheel to zoom in our out.)

The orbital elements of Hera are:

            e (Eccentricity)                : 0.0816151
            a (Semimajor axis)              : 2.7013557
            i (Inclination)                 : 5.42727
            Ω (Longitude of ascending node) : 135.95401
            ω (Argument of perihelion)      : 190.41997
            M (Mean anomaly)                : 209.95297
            Epoch                           : 2026 Jun 09

            L (Longitude of perihelion)     : 146.32828
            B (Latitude of perihelion)      : -0.98017
            P (Orbital period in years)     : 4.44            
        

The light curve chart below shows the estimated development of the minor planet's magnitude.


The all-sky chart below shows the path of the minor planet over the same period as the light curve. The current position is marked yellow.





The following chart shows the path of the minor planet in the next few days. The field of view is optimized for (~10x50) binoculars and finderscopes.




Ephemerides:
Date       Time       RA (2000)    DEC (2000)    delta   radius  elong  phase   PA    magn
2026-07-26 00:00 UT   11 16 13.5   +08 07 21     3.516    2.876   44.2   14.2   110   13.6 
2026-07-26 07:25 UT   11 16 37.8   +08 04 50     3.519    2.876   44.0   14.2   110   13.6 
2026-07-27 00:00 UT   11 17 32.2   +07 59 12     3.525    2.876   43.6   14.1   110   13.6 
2026-07-28 00:00 UT   11 18 51.3   +07 51 01     3.534    2.875   43.0   13.9   110   13.6 
2026-07-29 00:00 UT   11 20 10.6   +07 42 48     3.542    2.875   42.4   13.8   110   13.6 
2026-07-30 00:00 UT   11 21 30.1   +07 34 33     3.551    2.874   41.8   13.6   110   13.6 
2026-07-31 00:00 UT   11 22 49.9   +07 26 16     3.559    2.874   41.2   13.4   110   13.6 
2026-08-01 00:00 UT   11 24 09.9   +07 17 56     3.567    2.873   40.6   13.3   109   13.6 
2026-08-02 00:00 UT   11 25 30.1   +07 09 35     3.575    2.873   40.0   13.1   109   13.6 
2026-08-03 00:00 UT   11 26 50.6   +07 01 12     3.583    2.872   39.4   13.0   109   13.6 
2026-08-04 00:00 UT   11 28 11.3   +06 52 46     3.591    2.872   38.8   12.8   109   13.6 
2026-08-05 00:00 UT   11 29 32.3   +06 44 19     3.599    2.871   38.2   12.6   109   13.5 
2026-08-06 00:00 UT   11 30 53.5   +06 35 50     3.607    2.871   37.6   12.5   109   13.5 
2026-08-07 00:00 UT   11 32 14.9   +06 27 18     3.614    2.870   37.0   12.3   109   13.5 
2026-08-08 00:00 UT   11 33 36.5   +06 18 45     3.621    2.870   36.4   12.1   109   13.5 
2026-08-09 00:00 UT   11 34 58.3   +06 10 11     3.629    2.869   35.9   11.9   109   13.5 
2026-08-10 00:00 UT   11 36 20.4   +06 01 34     3.636    2.869   35.3   11.8   109   13.5 
2026-08-11 00:00 UT   11 37 42.7   +05 52 56     3.643    2.868   34.7   11.6   109   13.5 
2026-08-12 00:00 UT   11 39 05.1   +05 44 16     3.650    2.868   34.1   11.4   109   13.5 
2026-08-13 00:00 UT   11 40 27.8   +05 35 35     3.657    2.867   33.5   11.3   109   13.5 
2026-08-14 00:00 UT   11 41 50.7   +05 26 52     3.663    2.866   32.9   11.1   108   13.5 
2026-08-15 00:00 UT   11 43 13.8   +05 18 07     3.670    2.866   32.3   10.9   108   13.5 
2026-08-16 00:00 UT   11 44 37.1   +05 09 21     3.676    2.865   31.8   10.7   108   13.5 
2026-08-17 00:00 UT   11 46 00.5   +05 00 34     3.683    2.865   31.2   10.5   108   13.5 
2026-08-18 00:00 UT   11 47 24.2   +04 51 46     3.689    2.864   30.6   10.4   108   13.5 


    Terminology:
            
    delta:  distance between minor planet and earth in AU
    radius: distance between minor planet and sun in AU
    magn:   magnitude (brightness) estimate    
    ra:     right ascension in hours (24h = 360deg)
    dec:    declination in degrees
    elong:  elongation in degrees (angle sun-earth-minor planet)    
    phase:  phase angle in degrees (angle sun-minor planet-earth)        
    AU:     Astronomical Unit (mean distance between earth and sun: 149597870.7 km
    

Orbital elements provided by the MPC (Minor Planet Center).
Calculations by a modified version of AAPlus, a C# implementation of the AA+ project by PJ Naughter from the algorithms presented in the book "Astronomical Algorithms" by Jean Meeus.
NGC2000 dso catalog and star labels from VizieR as provided by the Strasbourg astronomical Data Center.
Tycho2 catalog from the ESO archive.